Overview Statistics Trail Chart Weather Telemetry Raw packets
 

This is the latest recevied weather packets stored in our database for station/object I8ZSE-10. If no packets are shown the sender has not sent any weather packets the latest 10 day(s).

<< 31 32 33 34 35 36 37 >>
Time Temp. Humidity Pressure Rain* Wind** Luminosity Snow
1788177930 32.78° C 34% - 0 mm - - -
1788177330 32.78° C 33% - 0 mm - - -
1788176730 32.78° C 35% - 0 mm - - -
1788176130 32.22° C 37% - 0 mm - - -
1788175534 31.67° C 36% - 0 mm - - -
1788174930 32.22° C 37% - 0 mm - - -
1788174330 31.67° C 37% - 0 mm - - -
1788173730 31.67° C 39% - 0 mm - - -
1788173130 31.67° C 38% - 0 mm - - -
1788172530 31.67° C 38% - 0 mm - - -
1788171930 31.11° C 40% - 0 mm - - -
1788171330 31.11° C 39% - 0 mm - - -
1788170730 30.56° C 39% - 0 mm - - -
1788170130 30° C 41% - 0 mm - - -
1788169530 30° C 42% - 0 mm - - -
1788168930 29.44° C 43% - 0 mm - - -
1788168330 29.44° C 45% - 0 mm - - -
1788167730 28.89° C 50% - 0 mm - - -
1788167130 28.89° C 52% - 0 mm - - -
1788166530 28.33° C 53% - 0 mm - - -
1788165930 27.78° C 56% - 0 mm - - -
1788165330 27.78° C 59% - 0 mm - - -
1788164431 27.22° C 62% - 0 mm - - -
1788163830 27.22° C 64% - 0 mm - - -
1788163230 27.22° C 65% - 0 mm - - -

* Rain latest hour (hover to see other rain measurements)
** Current wind speed in m/s (hover to see current wind gust speed)